Weather History for Jefferson City, MO

Change the Weather History Date:

Saturday, May 18, 2013

  Actual Average Record
Temperature  
Mean Temperature 72 °F -  
Max Temperature 84 °F 79 °F 92 °F (1962)
Min Temperature 59 °F 53 °F 38 °F (1973)
Cooling Degree Days 6    
Growing Degree Days 22 (Base 50)    
Moisture  
Dew Point 62 °F    
Average Humidity 79    
Maximum Humidity 100    
Minimum Humidity 47    
Precipitation  
Precipitation 0.00 in - - ()
Sea Level Pressure  
Sea Level Pressure 29.90 in    
Wind  
Wind Speed 6 mph (SE)    
Max Wind Speed 13 mph    
Max Gust Speed 20 mph    
Visibility 7 miles    
Events Fog    
Averages and records for this station are not official NWS values.
T = Trace of Precipitation, MM = Missing Value Source: NWS Daily Summary

Daily Weather History Graph

Daily Weather History Graph

Search for Another Location

Airport:

Trip Planner

Search our weather history database for the weather conditions in past years. The results will help you decide how hot, cold, wet, or windy it might be!

Date:

Astronomy

May. 18, 2013 Rise Set
Actual Time 5:54 AM CDT 8:16 PM CDT
Civil Twilight 5:24 AM CDT 8:46 PM CDT
Nautical Twilight 4:46 AM CDT 9:23 PM CDT
Astronomical Twilight 4:05 AM CDT 10:05 PM CDT
Moon 1:24 PM CDT (5/18) 1:41 AM CDT (5/18)
Length of Visible Light 15h 22m
Length of Day
14h 22m
First Quarter, 55% of the Moon is Illuminated
May 18
First Quarter
May 24
Full
May 31
Last Quarter
Jun 8
New
Jun 16
First Quarter

Hourly Weather History & Observations

Time (CDT) Temp. Heat Index Dew Point Humidity Pressure Visibility Wind Dir Wind Speed Gust Speed Precip Events Conditions
12:53 AM 64.9 °F - 61.0 °F 87% 29.92 in 10.0 mi ESE 3.5 mph - N/A   Clear
1:53 AM 64.0 °F - 61.0 °F 90% 29.91 in 9.0 mi Calm Calm - N/A   Clear
2:53 AM 63.0 °F - 61.0 °F 93% 29.91 in 6.0 mi SE 4.6 mph - N/A   Clear
3:53 AM 62.1 °F - 60.1 °F 93% 29.91 in 5.0 mi SE 5.8 mph - N/A   Clear
4:53 AM 60.1 °F - 57.9 °F 93% 29.91 in 4.0 mi SE 4.6 mph - N/A   Clear
5:53 AM 59.0 °F - 57.0 °F 93% 29.92 in 5.0 mi SE 4.6 mph - N/A   Clear
6:00 AM 59.0 °F - 57.2 °F 94% 29.96 in 2.5 mi SE 5.8 mph - N/A   Partly Cloudy
6:29 AM 59.0 °F - 57.2 °F 94% 29.96 in 0.8 mi SE 5.8 mph - N/A   Mist
6:37 AM 59.0 °F - 57.2 °F 94% 29.96 in 0.2 mi SE 5.8 mph - N/A Fog Fog
6:46 AM 60.8 °F - 59.0 °F 94% 29.96 in 1.0 mi SE 5.8 mph - N/A   Mist
6:50 AM 60.8 °F - 59.0 °F 94% 29.97 in 2.0 mi SE 5.8 mph - N/A   Scattered Clouds
6:53 AM 61.0 °F - 59.0 °F 93% 29.93 in 2.0 mi SE 5.8 mph - N/A   Scattered Clouds
7:07 AM 60.8 °F - 60.8 °F 100% 29.97 in 4.0 mi SE 3.5 mph - N/A   Clear
7:37 AM 64.4 °F - 60.8 °F 88% 29.98 in 6.0 mi ESE 5.8 mph - N/A   Scattered Clouds
7:46 AM 64.4 °F - 62.6 °F 94% 29.98 in 6.0 mi ESE 6.9 mph - N/A   Mostly Cloudy
7:53 AM 64.0 °F - 62.1 °F 93% 29.95 in 5.0 mi ESE 6.9 mph - N/A   Mostly Cloudy
8:41 AM 66.2 °F - 62.6 °F 88% 29.98 in 8.0 mi East 6.9 mph - N/A   Scattered Clouds
8:53 AM 66.9 °F - 63.0 °F 87% 29.94 in 10.0 mi ESE 5.8 mph - N/A   Scattered Clouds
9:53 AM 71.1 °F - 63.0 °F 75% 29.94 in 10.0 mi ESE 8.1 mph - N/A   Clear
10:53 AM 77.0 °F - 63.0 °F 62% 29.92 in 10.0 mi East 11.5 mph - N/A   Clear
11:53 AM 79.0 °F - 63.0 °F 58% 29.91 in 10.0 mi SE 9.2 mph 18.4 mph N/A   Scattered Clouds
12:53 PM 81.0 °F 82.5 °F 64.0 °F 56% 29.88 in 10.0 mi SE 9.2 mph - N/A   Scattered Clouds
2:53 PM 82.9 °F 84.4 °F 64.0 °F 53% 29.85 in 10.0 mi SE 10.4 mph - N/A   Mostly Cloudy
3:53 PM 82.9 °F 84.4 °F 64.0 °F 53% 29.85 in 10.0 mi SE 10.4 mph - N/A   Mostly Cloudy
4:53 PM 84.0 °F 84.5 °F 62.1 °F 47% 29.84 in 10.0 mi SSE 12.7 mph 19.6 mph N/A   Clear
5:53 PM 82.9 °F 84.0 °F 63.0 °F 51% 29.83 in 10.0 mi South 11.5 mph - N/A   Clear
6:53 PM 81.0 °F 82.7 °F 64.9 °F 58% 29.82 in 10.0 mi SE 9.2 mph - N/A   Clear
7:53 PM 79.0 °F - 64.9 °F 62% 29.82 in 10.0 mi SE 6.9 mph - N/A   Clear
8:53 PM 77.0 °F - 64.9 °F 66% 29.80 in 10.0 mi ESE 8.1 mph - N/A   Clear
9:53 PM 75.9 °F - 64.9 °F 69% 29.80 in 10.0 mi ESE 8.1 mph - N/A   Clear
10:53 PM 75.0 °F - 66.0 °F 73% 29.81 in 10.0 mi ESE 9.2 mph - N/A   Mostly Cloudy
11:53 PM 73.9 °F - 66.9 °F 79% 29.81 in 10.0 mi SE 5.8 mph - N/A   Mostly Cloudy